START_TIME,STEP,MOV.,A46,t_acc.,A13,t_acc.,M47,t_acc.,A17,t_acc.,A28,t_acc.,M38,t_acc.
1979-02-28 21:00:14.950 ,1,0,,0,0.,4.8,0.,4.8,,0,0.,4.8,0.,4.8
1979-02-28 21:00:19.750 ,1,0,,0,0.,4.8,0.,4.8,,0,0.,4.8,0.,4.8
1979-02-28 21:00:24.550 ,1,0,,0,0.,4.8,0.,4.8,,0,0.,4.8,0.,4.8
1979-02-28 21:00:29.350 ,1,0,,0,0.,4.8,0.,4.8,,0,0.,4.8,0.,4.8
1979-02-28 21:00:34.150 ,1,0,,0,0.,4.8,0.,4.8,,0,0.,4.8,0.,4.8
1979-02-28 21:00:38.940 ,2,0,,0,0.,4.8,0.,4.8,,0,0.,4.8,0.,4.8
1979-02-28 21:00:43.750 ,2,0,,0,0.,4.8,0.,4.8,,0,0.,4.8,0.,4.8
1979-02-28 21:00:48.550 ,2,0,,0,0.,4.8,0.,4.8,,0,0.,4.8,0.,4.8
1979-02-28 21:00:53.350 ,2,0,,0,0.,4.8,0.,4.8,,0,0.,4.8,0.,4.8
1979-02-28 21:00:58.150 ,2,0,,0,1.,4.8,0.,4.8,,0,0.,4.8,0.,4.8
1979-02-28 21:01:02.940 ,3,0,,0,0.,4.8,0.,4.8,,0,0.,4.8,0.,4.8
1979-02-28 21:01:07.750 ,3,0,,0,0.,4.8,0.,4.8,,0,1.,4.8,0.,4.8
1979-02-28 21:01:12.550 ,3,0,,0,0.,4.8,0.,4.8,,0,0.,4.8,0.,4.8
1979-02-28 21:01:17.350 ,3,0,,0,0.,4.8,1.,4.8,,0,0.,4.8,0.,4.8
1979-02-28 21:01:22.150 ,3,0,,0,0.,4.8,0.,4.8,,0,0.,4.8,0.,4.8
1979-02-28 21:01:26.940 ,4,0,,0,0.,4.8,0.,4.8,,0,0.,4.8,0.,4.8
1979-02-28 21:01:31.750 ,4,0,,0,0.,4.8,0.,4.8,,0,0.,4.8,0.,4.8
1979-02-28 21:01:36.550 ,4,0,,0,0.,4.8,0.,4.8,,0,0.,4.8,0.,4.8
1979-02-28 21:01:41.350 ,4,0,,0,0.,4.8,0.,4.8,,0,0.,4.8,0.,4.8
1979-02-28 21:01:46.150 ,4,0,,0,0.,4.8,0.,4.8,,0,0.,4.8,0.,4.8
1979-02-28 21:01:50.940 ,5,0,,0,0.,4.8,0.,4.8,,0,0.,4.8,0.,4.8
1979-02-28 21:01:55.750 ,5,0,,0,0.,4.8,0.,4.8,,0,0.,4.8,0.,4.8
1979-02-28 21:02:00.550 ,5,0,,0,0.,4.8,0.,4.8,,0,0.,4.8,0.,4.8
1979-02-28 21:02:05.350 ,5,0,,0,0.,4.8,0.,4.8,,0,0.,4.8,0.,4.8
1979-02-28 21:02:10.150 ,5,0,,0,0.,4.8,0.,4.8,,0,0.,4.8,1.,4.8
1979-02-28 21:02:14.950 ,6,0,,0,0.,4.8,0.,4.8,,0,0.,4.8,0.,4.8
1979-02-28 21:02:19.750 ,6,0,,0,0.,4.8,0.,4.8,,0,0.,4.8,0.,4.8
1979-02-28 21:02:24.550 ,6,0,,0,0.,4.8,0.,4.8,,0,0.,4.8,0.,4.8
1979-02-28 21:02:29.350 ,6,0,,0,0.,4.8,0.,4.8,,0,0.,4.8,0.,4.8
1979-02-28 21:02:34.150 ,6,0,,0,0.,4.8,0.,4.8,,0,0.,4.8,0.,4.8
1979-02-28 21:02:38.950 ,7,0,,0,0.,4.8,0.,4.8,,0,0.,4.8,0.,4.8
1979-02-28 21:02:43.750 ,7,0,,0,0.,4.8,0.,4.8,,0,0.,4.8,0.,4.8
1979-02-28 21:02:48.550 ,7,0,,0,0.,4.8,0.,4.8,,0,0.,4.8,0.,4.8
1979-02-28 21:02:53.350 ,7,0,,0,0.,4.8,0.,4.8,,0,0.,4.8,0.,4.8
1979-02-28 21:02:58.150 ,7,0,,0,0.,4.8,0.,4.8,,0,0.,4.8,0.,4.8
1979-02-28 21:03:02.950 ,7,0,,0,0.,4.8,0.,4.8,,0,0.,4.8,0.,4.8
1979-02-28 21:03:07.750 ,7,0,,0,0.,4.8,0.,4.8,,0,0.,4.8,0.,4.8
1979-02-28 21:03:12.550 ,7,0,,0,0.,4.8,0.,4.8,,0,0.,4.8,0.,4.8
1979-02-28 21:03:17.350 ,7,0,,0,0.,4.8,0.,4.8,,0,1.,4.8,0.,4.8
1979-02-28 21:03:22.150 ,7,0,,0,0.,4.8,0.,4.8,,0,0.,4.8,0.,4.8
1979-02-28 21:03:26.950 ,6,0,,0,0.,4.8,0.,4.8,,0,0.,4.8,0.,4.8
1979-02-28 21:03:31.750 ,6,0,,0,0.,4.8,0.,4.8,,0,0.,4.8,0.,4.8
1979-02-28 21:03:36.550 ,6,0,,0,0.,4.8,0.,4.8,,0,0.,4.8,0.,4.8
1979-02-28 21:03:41.350 ,6,0,,0,0.,4.8,0.,4.8,,0,0.,4.8,0.,4.8
1979-02-28 21:03:46.150 ,6,0,,0,0.,4.8,0.,4.8,,0,0.,4.8,0.,4.8
1979-02-28 21:03:50.950 ,5,0,,0,0.,4.8,0.,4.8,,0,0.,4.8,0.,4.8
1979-02-28 21:03:55.750 ,5,0,,0,0.,4.8,0.,4.8,,0,0.,4.8,0.,4.8
1979-02-28 21:04:00.550 ,5,0,,0,0.,4.8,0.,4.8,,0,0.,4.8,0.,4.8
1979-02-28 21:04:05.350 ,5,0,,0,0.,4.8,0.,4.8,,0,0.,4.8,0.,4.8
1979-02-28 21:04:10.150 ,5,0,,0,0.,4.8,0.,4.8,,0,0.,4.8,0.,4.8
1979-02-28 21:04:14.950 ,4,0,,0,0.,4.8,0.,4.8,,0,0.,4.8,0.,4.8
1979-02-28 21:04:19.750 ,4,0,,0,0.,4.8,0.,4.8,,0,0.,4.8,0.,4.8
1979-02-28 21:04:24.550 ,4,0,,0,1.,4.8,0.,4.8,,0,0.,4.8,0.,4.8
1979-02-28 21:04:29.350 ,4,0,,0,0.,4.8,0.,4.8,,0,0.,4.8,0.,4.8
1979-02-28 21:04:34.150 ,4,0,,0,0.,4.8,0.,4.8,,0,0.,4.8,0.,4.8
1979-02-28 21:04:38.950 ,3,0,,0,0.,4.8,0.,4.8,,0,0.,4.8,0.,4.8
1979-02-28 21:04:43.740 ,3,0,,0,0.,4.8,0.,4.8,,0,0.,4.8,0.,4.8
1979-02-28 21:04:48.550 ,3,0,,0,0.,4.8,0.,4.8,,0,0.,4.8,0.,4.8
1979-02-28 21:04:53.350 ,3,0,,0,0.,4.8,0.,4.8,,0,0.,4.8,0.,4.8
1979-02-28 21:04:58.150 ,3,0,,0,0.,4.8,0.,4.8,,0,0.,4.8,0.,4.8
1979-02-28 21:05:02.950 ,2,0,,0,0.,4.8,0.,4.8,,0,0.,4.8,0.,4.8
1979-02-28 21:05:07.740 ,2,0,,0,0.,4.8,0.,4.8,,0,0.,4.8,0.,4.8
1979-02-28 21:05:12.550 ,2,0,,0,1.,4.8,0.,4.8,,0,0.,4.8,0.,4.8
1979-02-28 21:05:17.350 ,2,0,,0,0.,4.8,0.,4.8,,0,0.,4.8,0.,4.8
1979-02-28 21:05:22.150 ,2,0,,0,0.,4.8,0.,4.8,,0,0.,4.8,0.,4.8
1979-02-28 21:05:26.950 ,1,0,,0,0.,4.8,0.,4.8,,0,0.,4.8,0.,4.8
1979-02-28 21:05:31.750 ,1,0,,0,0.,4.8,0.,4.8,,0,0.,4.8,0.,4.8
1979-02-28 21:05:36.550 ,1,0,,0,0.,4.8,0.,4.8,,0,0.,4.8,0.,4.8
1979-02-28 21:05:41.350 ,1,0,,0,0.,4.8,0.,4.8,,0,0.,4.8,0.,4.8
1979-02-28 21:05:46.150 ,1,0,,0,0.,4.8,0.,4.8,,0,0.,4.8,0.,4.8
1979-02-28 21:05:50.950 ,0,0,,0,0.,4.8,0.,4.8,,0,0.,4.8,0.,4.8
1979-02-28 21:05:55.740 ,0,0,,0,0.,4.8,0.,4.8,,0,0.,4.8,0.,4.8
1979-02-28 21:06:00.550 ,0,0,,0,0.,4.8,0.,4.8,,0,0.,4.8,0.,4.8
1979-02-28 21:06:05.350 ,0,0,,0,0.,4.8,0.,4.8,,0,0.,4.8,1.,4.8
1979-02-28 21:06:10.150 ,0,0,,0,0.,4.8,0.,4.8,,0,0.,4.8,0.,4.8
1979-02-28 21:06:14.950 ,0,0,,0,0.,4.8,0.,4.8,,0,0.,4.8,0.,4.8
1979-02-28 21:06:19.750 ,0,0,,0,0.,4.8,0.,4.8,,0,0.,4.8,0.,4.8
1979-02-28 21:06:24.550 ,0,0,,0,0.,4.8,0.,4.8,,0,0.,4.8,0.,4.8
1979-02-28 21:06:29.350 ,0,0,,0,0.,4.8,0.,4.8,,0,0.,4.8,0.,4.8
1979-02-28 21:06:34.150 ,0,0,,0,0.,4.8,0.,4.8,,0,0.,4.8,0.,4.8
1979-02-28 21:06:38.950 ,1,0,,0,0.,4.8,0.,4.8,,0,0.,4.8,0.,4.8
1979-02-28 21:06:43.740 ,1,0,,0,0.,4.8,0.,4.8,,0,0.,4.8,0.,4.8
1979-02-28 21:06:48.550 ,1,0,,0,0.,4.8,0.,4.8,,0,0.,4.8,0.,4.8
1979-02-28 21:06:53.350 ,1,0,,0,0.,4.8,0.,4.8,,0,0.,4.8,0.,4.8
1979-02-28 21:06:58.150 ,1,0,,0,0.,4.8,0.,4.8,,0,0.,4.8,0.,4.8
1979-02-28 21:07:02.950 ,2,0,,0,0.,4.8,0.,4.8,,0,0.,4.8,0.,4.8
1979-02-28 21:07:07.740 ,2,0,,0,0.,4.8,0.,4.8,,0,0.,4.8,0.,4.8
1979-02-28 21:07:12.550 ,2,0,,0,0.,4.8,0.,4.8,,0,0.,4.8,0.,4.8
1979-02-28 21:07:17.350 ,2,0,,0,0.,4.8,0.,4.8,,0,0.,4.8,0.,4.8
1979-02-28 21:07:22.150 ,2,0,,0,0.,4.8,0.,4.8,,0,0.,4.8,0.,4.8
1979-02-28 21:07:26.950 ,3,0,,0,0.,4.8,0.,4.8,,0,0.,4.8,0.,4.8
1979-02-28 21:07:31.750 ,3,0,,0,0.,4.8,0.,4.8,,0,0.,4.8,0.,4.8
1979-02-28 21:07:36.550 ,3,0,,0,0.,4.8,0.,4.8,,0,0.,4.8,0.,4.8
1979-02-28 21:07:41.350 ,3,0,,0,0.,4.8,0.,4.8,,0,0.,4.8,0.,4.8
1979-02-28 21:07:46.150 ,3,0,,0,0.,4.8,0.,4.8,,0,0.,4.8,0.,4.8
1979-02-28 21:07:50.950 ,4,0,,0,0.,4.8,0.,4.8,,0,0.,4.8,0.,4.8
1979-02-28 21:07:55.740 ,4,0,,0,0.,4.8,0.,4.8,,0,0.,4.8,0.,4.8
1979-02-28 21:08:00.550 ,4,0,,0,0.,4.8,0.,4.8,,0,0.,4.8,0.,4.8
1979-02-28 21:08:05.350 ,4,0,,0,0.,4.8,0.,4.8,,0,0.,4.8,0.,4.8
1979-02-28 21:08:10.150 ,4,0,,0,0.,4.8,0.,4.8,,0,0.,4.8,0.,4.8
1979-02-28 21:08:14.950 ,5,0,,0,0.,4.8,0.,4.8,,0,0.,4.8,0.,4.8
1979-02-28 21:08:19.750 ,5,0,,0,0.,4.8,0.,4.8,,0,0.,4.8,1.,4.8
1979-02-28 21:08:24.550 ,5,0,,0,0.,4.8,0.,4.8,,0,0.,4.8,0.,4.8
1979-02-28 21:08:29.350 ,5,0,,0,0.,4.8,0.,4.8,,0,0.,4.8,0.,4.8
1979-02-28 21:08:34.150 ,5,0,,0,0.,4.8,0.,4.8,,0,0.,4.8,0.,4.8
1979-02-28 21:08:38.950 ,6,0,,0,0.,4.8,0.,4.8,,0,0.,4.8,0.,4.8
1979-02-28 21:08:43.740 ,6,0,,0,0.,4.8,0.,4.8,,0,0.,4.8,0.,4.8
1979-02-28 21:08:48.550 ,6,0,,0,0.,4.8,0.,4.8,,0,0.,4.8,0.,4.8
1979-02-28 21:08:53.350 ,6,0,,0,0.,4.8,0.,4.8,,0,0.,4.8,0.,4.8
1979-02-28 21:08:58.150 ,6,0,,0,0.,4.8,0.,4.8,,0,0.,4.8,0.,4.8
1979-02-28 21:09:02.950 ,7,0,,0,0.,4.8,0.,4.8,,0,0.,4.8,0.,4.8
1979-02-28 21:09:07.740 ,7,0,,0,0.,4.8,0.,4.8,,0,0.,4.8,0.,4.8
1979-02-28 21:09:12.550 ,7,0,,0,0.,4.8,0.,4.8,,0,0.,4.8,0.,4.8
1979-02-28 21:09:17.350 ,7,0,,0,0.,4.8,0.,4.8,,0,0.,4.8,0.,4.8
1979-02-28 21:09:22.150 ,7,0,,0,2.,4.8,0.,4.8,,0,0.,4.8,0.,4.8
1979-02-28 21:09:26.950 ,7,0,,0,0.,4.8,0.,4.8,,0,0.,4.8,0.,4.8
1979-02-28 21:09:31.740 ,7,0,,0,0.,4.8,0.,4.8,,0,0.,4.8,0.,4.8
1979-02-28 21:09:36.550 ,7,0,,0,0.,4.8,0.,4.8,,0,0.,4.8,0.,4.8
1979-02-28 21:09:41.350 ,7,0,,0,0.,4.8,0.,4.8,,0,0.,4.8,0.,4.8
1979-02-28 21:09:46.150 ,7,0,,0,0.,4.8,0.,4.8,,0,0.,4.8,0.,4.8
1979-02-28 21:09:50.950 ,6,0,,0,0.,4.8,0.,4.8,,0,0.,4.8,0.,4.8
1979-02-28 21:09:55.740 ,6,0,,0,0.,4.8,0.,4.8,,0,0.,4.8,0.,4.8
1979-02-28 21:10:00.550 ,6,0,,0,0.,4.8,0.,4.8,,0,1.,4.8,0.,4.8
1979-02-28 21:10:05.350 ,6,0,,0,0.,4.8,0.,4.8,,0,0.,4.8,0.,4.8
1979-02-28 21:10:10.150 ,6,0,,0,0.,4.8,0.,4.8,,0,0.,4.8,0.,4.8
1979-02-28 21:10:14.950 ,5,0,,0,0.,4.8,0.,4.8,,0,0.,4.8,0.,4.8
1979-02-28 21:10:19.740 ,5,0,,0,1.,4.8,0.,4.8,,0,0.,4.8,0.,4.8
1979-02-28 21:10:24.550 ,5,0,,0,0.,4.8,0.,4.8,,0,0.,4.8,0.,4.8
1979-02-28 21:10:29.350 ,5,0,,0,0.,4.8,0.,4.8,,0,0.,4.8,0.,4.8
1979-02-28 21:10:34.150 ,5,0,,0,0.,4.8,0.,4.8,,0,0.,4.8,0.,4.8
1979-02-28 21:10:38.950 ,4,0,,0,0.,4.8,0.,4.8,,0,0.,4.8,0.,4.8
1979-02-28 21:10:43.740 ,4,0,,0,0.,4.8,0.,4.8,,0,0.,4.8,0.,4.8
1979-02-28 21:10:48.540 ,4,0,,0,0.,4.8,0.,4.8,,0,0.,4.8,0.,4.8
1979-02-28 21:10:53.350 ,4,0,,0,0.,4.8,0.,4.8,,0,0.,4.8,0.,4.8
1979-02-28 21:10:58.150 ,4,0,,0,0.,4.8,0.,4.8,,0,0.,4.8,0.,4.8
1979-02-28 21:11:02.950 ,3,0,,0,0.,4.8,0.,4.8,,0,0.,4.8,0.,4.8
1979-02-28 21:11:07.740 ,3,0,,0,0.,4.8,0.,4.8,,0,0.,4.8,0.,4.8
1979-02-28 21:11:12.550 ,3,0,,0,0.,4.8,0.,4.8,,0,0.,4.8,0.,4.8
1979-02-28 21:11:17.350 ,3,0,,0,0.,4.8,0.,4.8,,0,0.,4.8,0.,4.8
1979-02-28 21:11:22.150 ,3,0,,0,0.,4.8,0.,4.8,,0,0.,4.8,0.,4.8
1979-02-28 21:11:26.950 ,2,0,,0,0.,4.8,0.,4.8,,0,0.,4.8,0.,4.8
1979-02-28 21:11:31.740 ,2,0,,0,0.,4.8,0.,4.8,,0,0.,4.8,0.,4.8
1979-02-28 21:11:36.550 ,2,0,,0,0.,4.8,0.,4.8,,0,0.,4.8,0.,4.8
1979-02-28 21:11:41.350 ,2,0,,0,0.,4.8,0.,4.8,,0,0.,4.8,0.,4.8
1979-02-28 21:11:46.150 ,2,0,,0,0.,4.8,0.,4.8,,0,0.,4.8,0.,4.8
1979-02-28 21:11:50.950 ,1,0,,0,0.,4.8,0.,4.8,,0,0.,4.8,0.,4.8
1979-02-28 21:11:55.740 ,1,0,,0,0.,4.8,0.,4.8,,0,0.,4.8,0.,4.8
1979-02-28 21:12:00.550 ,1,0,,0,0.,4.8,0.,4.8,,0,0.,4.8,0.,4.8
1979-02-28 21:12:05.350 ,1,0,,0,0.,4.8,0.,4.8,,0,0.,4.8,0.,4.8
1979-02-28 21:12:10.150 ,1,0,,0,0.,4.8,0.,4.8,,0,0.,4.8,0.,4.8
1979-02-28 21:12:14.950 ,0,0,,0,0.,4.8,0.,4.8,,0,0.,4.8,0.,4.8
1979-02-28 21:12:19.740 ,0,0,,0,0.,4.8,0.,4.8,,0,0.,4.8,0.,4.8
1979-02-28 21:12:24.550 ,0,0,,0,0.,4.8,0.,4.8,,0,0.,4.8,0.,4.8
1979-02-28 21:12:29.350 ,0,0,,0,0.,4.8,0.,4.8,,0,0.,4.8,0.,4.8
1979-02-28 21:12:34.150 ,0,0,,0,0.,4.8,0.,4.8,,0,0.,4.8,0.,4.8
1979-02-28 21:12:38.950 ,0,0,,0,0.,4.8,0.,4.8,,0,0.,4.8,0.,4.8
1979-02-28 21:12:43.740 ,0,0,,0,0.,4.8,0.,4.8,,0,0.,4.8,0.,4.8
1979-02-28 21:12:48.540 ,0,0,,0,0.,4.8,0.,4.8,,0,0.,4.8,0.,4.8
1979-02-28 21:12:53.350 ,0,0,,0,0.,4.8,0.,4.8,,0,0.,4.8,0.,4.8
1979-02-28 21:12:58.150 ,0,0,,0,0.,4.8,0.,4.8,,0,0.,4.8,0.,4.8
1979-02-28 21:13:02.950 ,1,0,,0,0.,4.8,0.,4.8,,0,0.,4.8,0.,4.8
1979-02-28 21:13:07.740 ,1,0,,0,0.,4.8,0.,4.8,,0,0.,4.8,0.,4.8
1979-02-28 21:13:12.550 ,1,0,,0,0.,4.8,0.,4.8,,0,0.,4.8,0.,4.8
1979-02-28 21:13:17.350 ,1,0,,0,0.,4.8,0.,4.8,,0,0.,4.8,0.,4.8
1979-02-28 21:13:22.150 ,1,0,,0,0.,4.8,0.,4.8,,0,0.,4.8,0.,4.8
1979-02-28 21:13:26.950 ,2,0,,0,0.,4.8,0.,4.8,,0,0.,4.8,0.,4.8
1979-02-28 21:13:31.740 ,2,0,,0,0.,4.8,0.,4.8,,0,0.,4.8,0.,4.8
1979-02-28 21:13:36.550 ,2,0,,0,0.,4.8,0.,4.8,,0,0.,4.8,0.,4.8
1979-02-28 21:13:41.350 ,2,0,,0,0.,4.8,0.,4.8,,0,0.,4.8,0.,4.8
1979-02-28 21:13:46.150 ,2,0,,0,0.,4.8,0.,4.8,,0,0.,4.8,0.,4.8
1979-02-28 21:13:50.950 ,3,0,,0,0.,4.8,0.,4.8,,0,0.,4.8,0.,4.8
1979-02-28 21:13:55.740 ,3,0,,0,0.,4.8,0.,4.8,,0,0.,4.8,0.,4.8
1979-02-28 21:14:00.540 ,3,0,,0,0.,4.8,0.,4.8,,0,0.,4.8,0.,4.8
1979-02-28 21:14:05.350 ,3,0,,0,0.,4.8,0.,4.8,,0,0.,4.8,0.,4.8
1979-02-28 21:14:10.150 ,3,0,,0,0.,4.8,0.,4.8,,0,0.,4.8,0.,4.8
1979-02-28 21:14:14.950 ,4,0,,0,0.,4.8,0.,4.8,,0,0.,4.8,0.,4.8
1979-02-28 21:14:19.740 ,4,0,,0,0.,4.8,0.,4.8,,0,1.,4.8,0.,4.8
1979-02-28 21:14:24.550 ,4,0,,0,0.,4.8,0.,4.8,,0,0.,4.8,0.,4.8
1979-02-28 21:14:29.350 ,4,0,,0,0.,4.8,0.,4.8,,0,0.,4.8,0.,4.8
1979-02-28 21:14:34.150 ,4,0,,0,0.,4.8,0.,4.8,,0,0.,4.8,0.,4.8
1979-02-28 21:14:38.950 ,5,0,,0,0.,4.8,0.,4.8,,0,0.,4.8,0.,4.8
1979-02-28 21:14:43.740 ,5,0,,0,0.,4.8,0.,4.8,,0,0.,4.8,0.,4.8
1979-02-28 21:14:48.540 ,5,0,,0,0.,4.8,1.,4.8,,0,0.,4.8,0.,4.8
1979-02-28 21:14:53.350 ,5,0,,0,0.,4.8,0.,4.8,,0,0.,4.8,0.,4.8
1979-02-28 21:14:58.150 ,5,0,,0,0.,4.8,0.,4.8,,0,0.,4.8,0.,4.8
1979-02-28 21:15:02.950 ,6,0,,0,0.,4.8,0.,4.8,,0,0.,4.8,1.,4.8
1979-02-28 21:15:07.740 ,6,0,,0,0.,4.8,0.,4.8,,0,0.,4.8,0.,4.8
1979-02-28 21:15:12.550 ,6,0,,0,0.,4.8,0.,4.8,,0,0.,4.8,0.,4.8
1979-02-28 21:15:17.350 ,6,0,,0,0.,4.8,0.,4.8,,0,0.,4.8,0.,4.8
1979-02-28 21:15:22.150 ,6,0,,0,0.,4.8,0.,4.8,,0,0.,4.8,0.,4.8
1979-02-28 21:15:26.950 ,7,0,,0,0.,4.8,0.,4.8,,0,0.,4.8,0.,4.8
1979-02-28 21:15:31.740 ,7,0,,0,0.,4.8,0.,4.8,,0,0.,4.8,0.,4.8
1979-02-28 21:15:36.550 ,7,0,,0,0.,4.8,0.,4.8,,0,0.,4.8,0.,4.8
1979-02-28 21:15:41.350 ,7,0,,0,0.,4.8,0.,4.8,,0,0.,4.8,0.,4.8
1979-02-28 21:15:46.150 ,7,0,,0,0.,4.8,0.,4.8,,0,0.,4.8,0.,4.8
1979-02-28 21:15:50.950 ,7,0,,0,0.,4.8,0.,4.8,,0,0.,4.8,0.,4.8
1979-02-28 21:15:55.740 ,7,0,,0,0.,4.8,0.,4.8,,0,0.,4.8,0.,4.8
1979-02-28 21:16:00.540 ,7,0,,0,0.,4.8,0.,4.8,,0,0.,4.8,0.,4.8
1979-02-28 21:16:05.350 ,7,0,,0,0.,4.8,0.,4.8,,0,0.,4.8,0.,4.8
1979-02-28 21:16:10.150 ,7,0,,0,0.,4.8,0.,4.8,,0,0.,4.8,0.,4.8
1979-02-28 21:16:14.950 ,6,0,,0,0.,4.8,0.,4.8,,0,0.,4.8,0.,4.8
1979-02-28 21:16:19.740 ,6,0,,0,0.,4.8,0.,4.8,,0,0.,4.8,0.,4.8
1979-02-28 21:16:24.550 ,6,0,,0,0.,4.8,0.,4.8,,0,0.,4.8,0.,4.8
1979-02-28 21:16:29.350 ,6,0,,0,0.,4.8,0.,4.8,,0,0.,4.8,0.,4.8
1979-02-28 21:16:34.150 ,6,0,,0,0.,4.8,0.,4.8,,0,0.,4.8,0.,4.8
1979-02-28 21:16:38.950 ,5,0,,0,0.,4.8,0.,4.8,,0,0.,4.8,0.,4.8
1979-02-28 21:16:43.740 ,5,0,,0,0.,4.8,0.,4.8,,0,0.,4.8,0.,4.8
1979-02-28 21:16:48.540 ,5,0,,0,0.,4.8,0.,4.8,,0,0.,4.8,0.,4.8
1979-02-28 21:16:53.350 ,5,0,,0,0.,4.8,0.,4.8,,0,0.,4.8,0.,4.8
1979-02-28 21:16:58.150 ,5,0,,0,0.,4.8,0.,4.8,,0,0.,4.8,0.,4.8
1979-02-28 21:17:02.950 ,4,0,,0,0.,4.8,0.,4.8,,0,0.,4.8,0.,4.8
1979-02-28 21:17:07.740 ,4,0,,0,0.,4.8,0.,4.8,,0,0.,4.8,0.,4.8
1979-02-28 21:17:12.550 ,4,0,,0,0.,4.8,0.,4.8,,0,1.,4.8,0.,4.8
1979-02-28 21:17:17.340 ,4,0,,0,0.,4.8,0.,4.8,,0,0.,4.8,0.,4.8
1979-02-28 21:17:22.150 ,4,0,,0,0.,4.8,0.,4.8,,0,0.,4.8,0.,4.8
1979-02-28 21:17:26.940 ,3,0,,0,0.,4.8,0.,4.8,,0,0.,4.8,0.,4.8
1979-02-28 21:17:31.740 ,3,0,,0,0.,4.8,0.,4.8,,0,0.,4.8,0.,4.8
1979-02-28 21:17:36.540 ,3,0,,0,0.,4.8,0.,4.8,,0,0.,4.8,0.,4.8
1979-02-28 21:17:41.340 ,3,0,,0,0.,4.8,0.,4.8,,0,0.,4.8,0.,4.8
1979-02-28 21:17:46.140 ,3,0,,0,0.,4.8,0.,4.8,,0,0.,4.8,0.,4.8
1979-02-28 21:17:50.940 ,2,0,,0,0.,4.8,0.,4.8,,0,0.,4.8,0.,4.8
1979-02-28 21:17:55.740 ,2,0,,0,0.,4.8,0.,4.8,,0,0.,4.8,0.,4.8
1979-02-28 21:18:00.540 ,2,0,,0,0.,4.8,0.,4.8,,0,0.,4.8,0.,4.8
1979-02-28 21:18:05.340 ,2,0,,0,0.,4.8,1.,4.8,,0,0.,4.8,0.,4.8
1979-02-28 21:18:10.150 ,2,0,,0,0.,4.8,0.,4.8,,0,0.,4.8,0.,4.8
1979-02-28 21:18:14.940 ,1,0,,0,0.,4.8,0.,4.8,,0,0.,4.8,0.,4.8
1979-02-28 21:18:19.740 ,1,0,,0,0.,4.8,0.,4.8,,0,0.,4.8,0.,4.8
1979-02-28 21:18:24.540 ,1,0,,0,0.,4.8,1.,4.8,,0,1.,4.8,0.,4.8
1979-02-28 21:18:29.340 ,1,0,,0,0.,4.8,0.,4.8,,0,0.,4.8,0.,4.8
1979-02-28 21:18:34.140 ,1,0,,0,0.,4.8,0.,4.8,,0,0.,4.8,0.,4.8
1979-02-28 21:18:38.940 ,0,0,,0,0.,4.8,0.,4.8,,0,0.,4.8,0.,4.8
1979-02-28 21:18:43.740 ,0,0,,0,0.,4.8,0.,4.8,,0,0.,4.8,0.,4.8
1979-02-28 21:18:48.540 ,0,0,,0,0.,4.8,0.,4.8,,0,0.,4.8,0.,4.8
1979-02-28 21:18:53.340 ,0,0,,0,0.,4.8,0.,4.8,,0,0.,4.8,0.,4.8
1979-02-28 21:18:58.140 ,0,0,,0,0.,4.8,0.,4.8,,0,0.,4.8,0.,4.8
1979-02-28 21:19:02.940 ,0,0,,0,0.,4.8,1.,4.8,,0,0.,4.8,0.,4.8
1979-02-28 21:19:07.740 ,0,0,,0,0.,4.8,0.,4.8,,0,0.,4.8,0.,4.8
1979-02-28 21:19:12.540 ,0,0,,0,0.,4.8,0.,4.8,,0,0.,4.8,0.,4.8
1979-02-28 21:19:17.340 ,0,0,,0,0.,4.8,0.,4.8,,0,0.,4.8,0.,4.8
1979-02-28 21:19:22.150 ,0,0,,0,0.,4.8,0.,4.8,,0,0.,4.8,0.,4.8
1979-02-28 21:19:26.940 ,1,0,,0,0.,4.8,0.,4.8,,0,0.,4.8,0.,4.8
1979-02-28 21:19:31.740 ,1,0,,0,0.,4.8,1.,4.8,,0,0.,4.8,0.,4.8
1979-02-28 21:19:36.540 ,1,0,,0,0.,4.8,0.,4.8,,0,0.,4.8,0.,4.8
1979-02-28 21:19:41.340 ,1,0,,0,0.,4.8,0.,4.8,,0,0.,4.8,0.,4.8
1979-02-28 21:19:46.140 ,1,0,,0,0.,4.8,0.,4.8,,0,0.,4.8,0.,4.8
1979-02-28 21:19:50.940 ,2,0,,0,0.,4.8,0.,4.8,,0,0.,4.8,0.,4.8
1979-02-28 21:19:55.740 ,2,0,,0,0.,4.8,0.,4.8,,0,0.,4.8,0.,4.8
1979-02-28 21:20:00.540 ,2,0,,0,0.,4.8,0.,4.8,,0,0.,4.8,0.,4.8
1979-02-28 21:20:05.340 ,2,0,,0,0.,4.8,0.,4.8,,0,0.,4.8,0.,4.8
1979-02-28 21:20:10.140 ,2,0,,0,0.,4.8,0.,4.8,,0,0.,4.8,0.,4.8
1979-02-28 21:20:14.940 ,3,0,,0,0.,4.8,0.,4.8,,0,0.,4.8,0.,4.8
1979-02-28 21:20:19.740 ,3,0,,0,0.,4.8,0.,4.8,,0,0.,4.8,0.,4.8
1979-02-28 21:20:24.540 ,3,0,,0,0.,4.8,1.,4.8,,0,0.,4.8,0.,4.8
1979-02-28 21:20:29.340 ,3,0,,0,0.,4.8,0.,4.8,,0,0.,4.8,0.,4.8
1979-02-28 21:20:34.140 ,3,0,,0,0.,4.8,0.,4.8,,0,0.,4.8,0.,4.8
1979-02-28 21:20:38.940 ,4,0,,0,0.,4.8,0.,4.8,,0,0.,4.8,0.,4.8
1979-02-28 21:20:43.740 ,4,0,,0,0.,4.8,0.,4.8,,0,0.,4.8,0.,4.8
1979-02-28 21:20:48.540 ,4,0,,0,0.,4.8,0.,4.8,,0,0.,4.8,0.,4.8
1979-02-28 21:20:53.340 ,4,0,,0,0.,4.8,0.,4.8,,0,0.,4.8,0.,4.8
1979-02-28 21:20:58.140 ,4,0,,0,0.,4.8,0.,4.8,,0,0.,4.8,0.,4.8
1979-02-28 21:21:02.940 ,5,0,,0,0.,4.8,0.,4.8,,0,0.,4.8,0.,4.8
1979-02-28 21:21:07.740 ,5,0,,0,0.,4.8,0.,4.8,,0,0.,4.8,0.,4.8
1979-02-28 21:21:12.540 ,5,0,,0,0.,4.8,0.,4.8,,0,0.,4.8,0.,4.8
1979-02-28 21:21:17.340 ,5,0,,0,0.,4.8,0.,4.8,,0,0.,4.8,0.,4.8
1979-02-28 21:21:22.150 ,5,0,,0,0.,4.8,0.,4.8,,0,0.,4.8,0.,4.8
1979-02-28 21:21:26.940 ,6,0,,0,0.,4.8,0.,4.8,,0,0.,4.8,0.,4.8
1979-02-28 21:21:31.740 ,6,0,,0,0.,4.8,0.,4.8,,0,0.,4.8,0.,4.8
1979-02-28 21:21:36.540 ,6,0,,0,0.,4.8,0.,4.8,,0,0.,4.8,0.,4.8
1979-02-28 21:21:41.340 ,6,0,,0,0.,4.8,0.,4.8,,0,0.,4.8,0.,4.8
1979-02-28 21:21:46.140 ,6,0,,0,0.,4.8,0.,4.8,,0,0.,4.8,0.,4.8
1979-02-28 21:21:50.940 ,7,0,,0,0.,4.8,0.,4.8,,0,0.,4.8,0.,4.8
1979-02-28 21:21:55.740 ,7,0,,0,0.,4.8,0.,4.8,,0,0.,4.8,0.,4.8
1979-02-28 21:22:00.540 ,7,0,,0,0.,4.8,0.,4.8,,0,0.,4.8,0.,4.8
1979-02-28 21:22:05.340 ,7,0,,0,0.,4.8,0.,4.8,,0,0.,4.8,0.,4.8
1979-02-28 21:22:10.140 ,7,0,,0,0.,4.8,0.,4.8,,0,0.,4.8,0.,4.8
1979-02-28 21:22:14.940 ,7,0,,0,1.,4.8,0.,4.8,,0,0.,4.8,0.,4.8
1979-02-28 21:22:19.740 ,7,0,,0,0.,4.8,0.,4.8,,0,0.,4.8,0.,4.8
1979-02-28 21:22:24.540 ,7,0,,0,0.,4.8,0.,4.8,,0,0.,4.8,0.,4.8
1979-02-28 21:22:29.340 ,7,0,,0,0.,4.8,0.,4.8,,0,0.,4.8,0.,4.8
1979-02-28 21:22:34.140 ,7,0,,0,0.,4.8,0.,4.8,,0,0.,4.8,0.,4.8
1979-02-28 21:22:38.940 ,6,0,,0,0.,4.8,0.,4.8,,0,0.,4.8,0.,4.8
1979-02-28 21:22:43.740 ,6,0,,0,0.,4.8,0.,4.8,,0,0.,4.8,0.,4.8
1979-02-28 21:22:48.540 ,6,0,,0,0.,4.8,0.,4.8,,0,0.,4.8,0.,4.8
1979-02-28 21:22:53.340 ,6,0,,0,0.,4.8,0.,4.8,,0,0.,4.8,0.,4.8
1979-02-28 21:22:58.140 ,6,0,,0,0.,4.8,0.,4.8,,0,0.,4.8,0.,4.8
1979-02-28 21:23:02.940 ,5,0,,0,0.,4.8,0.,4.8,,0,0.,4.8,0.,4.8
1979-02-28 21:23:07.740 ,5,0,,0,0.,4.8,0.,4.8,,0,0.,4.8,0.,4.8
1979-02-28 21:23:12.540 ,5,0,,0,0.,4.8,0.,4.8,,0,0.,4.8,1.,4.8
1979-02-28 21:23:17.340 ,5,0,,0,0.,4.8,0.,4.8,,0,0.,4.8,0.,4.8
1979-02-28 21:23:22.140 ,5,0,,0,0.,4.8,0.,4.8,,0,0.,4.8,0.,4.8
1979-02-28 21:23:26.940 ,4,0,,0,0.,4.8,0.,4.8,,0,0.,4.8,0.,4.8
1979-02-28 21:23:31.740 ,4,0,,0,0.,4.8,0.,4.8,,0,0.,4.8,0.,4.8
1979-02-28 21:23:36.540 ,4,0,,0,0.,4.8,0.,4.8,,0,0.,4.8,0.,4.8
1979-02-28 21:23:41.340 ,4,0,,0,0.,4.8,0.,4.8,,0,0.,4.8,0.,4.8
1979-02-28 21:23:46.150 ,4,0,,0,0.,4.8,0.,4.8,,0,0.,4.8,0.,4.8
1979-02-28 21:23:50.940 ,3,0,,0,0.,4.8,0.,4.8,,0,0.,4.8,0.,4.8
1979-02-28 21:23:55.740 ,3,0,,0,0.,4.8,0.,4.8,,0,0.,4.8,0.,4.8
1979-02-28 21:24:00.540 ,3,0,,0,0.,4.8,0.,4.8,,0,0.,4.8,0.,4.8
1979-02-28 21:24:05.340 ,3,0,,0,0.,4.8,0.,4.8,,0,0.,4.8,0.,4.8
1979-02-28 21:24:10.150 ,3,0,,0,0.,4.8,0.,4.8,,0,0.,4.8,0.,4.8
1979-02-28 21:24:14.940 ,2,0,,0,0.,4.8,0.,4.8,,0,0.,4.8,0.,4.8
1979-02-28 21:24:19.740 ,2,0,,0,0.,4.8,0.,4.8,,0,0.,4.8,0.,4.8
1979-02-28 21:24:24.540 ,2,0,,0,0.,4.8,0.,4.8,,0,0.,4.8,0.,4.8
1979-02-28 21:24:29.340 ,2,0,,0,0.,4.8,0.,4.8,,0,0.,4.8,0.,4.8
1979-02-28 21:24:34.150 ,2,0,,0,0.,4.8,0.,4.8,,0,0.,4.8,0.,4.8
1979-02-28 21:24:38.940 ,1,0,,0,0.,4.8,0.,4.8,,0,0.,4.8,0.,4.8
1979-02-28 21:24:43.740 ,1,0,,0,0.,4.8,0.,4.8,,0,0.,4.8,0.,4.8
1979-02-28 21:24:48.540 ,1,0,,0,0.,4.8,0.,4.8,,0,0.,4.8,0.,4.8
1979-02-28 21:24:53.340 ,1,0,,0,0.,4.8,0.,4.8,,0,0.,4.8,0.,4.8
1979-02-28 21:24:58.150 ,1,0,,0,0.,4.8,0.,4.8,,0,0.,4.8,0.,4.8
1979-02-28 21:25:02.940 ,0,0,,0,0.,4.8,0.,4.8,,0,0.,4.8,0.,4.8
1979-02-28 21:25:07.740 ,0,0,,0,0.,4.8,0.,4.8,,0,0.,4.8,0.,4.8
1979-02-28 21:25:12.540 ,0,0,,0,0.,4.8,0.,4.8,,0,0.,4.8,0.,4.8
1979-02-28 21:25:17.340 ,0,0,,0,0.,4.8,0.,4.8,,0,0.,4.8,0.,4.8
1979-02-28 21:25:22.150 ,0,0,,0,0.,4.8,0.,4.8,,0,0.,4.8,0.,4.8
1979-02-28 21:25:26.940 ,0,0,,0,0.,4.8,0.,4.8,,0,0.,4.8,0.,4.8
1979-02-28 21:25:31.740 ,0,0,,0,0.,4.8,0.,4.8,,0,0.,4.8,0.,4.8
1979-02-28 21:25:36.540 ,0,0,,0,0.,4.8,0.,4.8,,0,0.,4.8,0.,4.8
1979-02-28 21:25:41.340 ,0,0,,0,0.,4.8,0.,4.8,,0,0.,4.8,0.,4.8
1979-02-28 21:25:46.150 ,0,0,,0,0.,4.8,0.,4.8,,0,0.,4.8,0.,4.8
1979-02-28 21:25:50.940 ,1,0,,0,0.,4.8,0.,4.8,,0,0.,4.8,0.,4.8
1979-02-28 21:25:55.740 ,1,0,,0,0.,4.8,0.,4.8,,0,0.,4.8,0.,4.8
1979-02-28 21:26:00.540 ,1,0,,0,0.,4.8,1.,4.8,,0,0.,4.8,0.,4.8
1979-02-28 21:26:05.340 ,1,0,,0,0.,4.8,0.,4.8,,0,0.,4.8,0.,4.8
1979-02-28 21:26:10.150 ,1,0,,0,0.,4.8,0.,4.8,,0,0.,4.8,0.,4.8
1979-02-28 21:26:14.940 ,2,0,,0,0.,4.8,0.,4.8,,0,0.,4.8,0.,4.8
1979-02-28 21:26:19.740 ,2,0,,0,0.,4.8,0.,4.8,,0,0.,4.8,0.,4.8
1979-02-28 21:26:24.540 ,2,0,,0,0.,4.8,0.,4.8,,0,0.,4.8,0.,4.8
1979-02-28 21:26:29.340 ,2,0,,0,0.,4.8,0.,4.8,,0,0.,4.8,0.,4.8
1979-02-28 21:26:34.140 ,2,0,,0,0.,4.8,0.,4.8,,0,0.,4.8,0.,4.8
1979-02-28 21:26:38.940 ,3,0,,0,0.,4.8,0.,4.8,,0,0.,4.8,0.,4.8
1979-02-28 21:26:43.740 ,3,0,,0,0.,4.8,0.,4.8,,0,0.,4.8,0.,4.8
1979-02-28 21:26:48.540 ,3,0,,0,0.,4.8,1.,4.8,,0,0.,4.8,0.,4.8
1979-02-28 21:26:53.340 ,3,0,,0,0.,4.8,0.,4.8,,0,0.,4.8,0.,4.8
1979-02-28 21:26:58.150 ,3,0,,0,0.,4.8,0.,4.8,,0,0.,4.8,0.,4.8
1979-02-28 21:27:02.940 ,4,0,,0,0.,4.8,0.,4.8,,0,0.,4.8,0.,4.8
1979-02-28 21:27:07.740 ,4,0,,0,0.,4.8,0.,4.8,,0,0.,4.8,0.,4.8
1979-02-28 21:27:12.540 ,4,0,,0,0.,4.8,0.,4.8,,0,0.,4.8,0.,4.8
1979-02-28 21:27:17.340 ,4,0,,0,0.,4.8,0.,4.8,,0,0.,4.8,0.,4.8
1979-02-28 21:27:22.150 ,4,0,,0,0.,4.8,0.,4.8,,0,0.,4.8,0.,4.8
1979-02-28 21:27:26.940 ,5,0,,0,0.,4.8,0.,4.8,,0,0.,4.8,0.,4.8
1979-02-28 21:27:31.740 ,5,0,,0,0.,4.8,0.,4.8,,0,0.,4.8,0.,4.8
1979-02-28 21:27:36.540 ,5,0,,0,0.,4.8,0.,4.8,,0,0.,4.8,0.,4.8
1979-02-28 21:27:41.340 ,5,0,,0,0.,4.8,0.,4.8,,0,0.,4.8,0.,4.8
1979-02-28 21:27:46.150 ,5,0,,0,0.,4.8,0.,4.8,,0,0.,4.8,0.,4.8
1979-02-28 21:27:50.940 ,6,0,,0,0.,4.8,0.,4.8,,0,0.,4.8,0.,4.8
1979-02-28 21:27:55.740 ,6,0,,0,0.,4.8,0.,4.8,,0,0.,4.8,0.,4.8
1979-02-28 21:28:00.540 ,6,0,,0,0.,4.8,0.,4.8,,0,0.,4.8,0.,4.8
1979-02-28 21:28:05.340 ,6,0,,0,0.,4.8,0.,4.8,,0,0.,4.8,0.,4.8
1979-02-28 21:28:10.150 ,6,0,,0,0.,4.8,0.,4.8,,0,0.,4.8,0.,4.8
1979-02-28 21:28:14.940 ,7,0,,0,0.,4.8,0.,4.8,,0,0.,4.8,0.,4.8
1979-02-28 21:28:19.740 ,7,0,,0,0.,4.8,0.,4.8,,0,0.,4.8,0.,4.8
1979-02-28 21:28:24.540 ,7,0,,0,0.,4.8,0.,4.8,,0,0.,4.8,0.,4.8
1979-02-28 21:28:29.340 ,7,0,,0,0.,4.8,0.,4.8,,0,0.,4.8,0.,4.8
1979-02-28 21:28:34.140 ,7,0,,0,0.,4.8,0.,4.8,,0,0.,4.8,0.,4.8
1979-02-28 21:28:38.940 ,7,0,,0,0.,4.8,0.,4.8,,0,0.,4.8,0.,4.8
1979-02-28 21:28:43.740 ,7,0,,0,0.,4.8,0.,4.8,,0,0.,4.8,0.,4.8
1979-02-28 21:28:48.540 ,7,0,,0,0.,4.8,0.,4.8,,0,0.,4.8,0.,4.8
1979-02-28 21:28:53.340 ,7,0,,0,0.,4.8,0.,4.8,,0,0.,4.8,0.,4.8
1979-02-28 21:28:58.150 ,7,0,,0,0.,4.8,0.,4.8,,0,0.,4.8,0.,4.8
1979-02-28 21:29:02.940 ,6,0,,0,0.,4.8,0.,4.8,,0,0.,4.8,0.,4.8
1979-02-28 21:29:07.740 ,6,0,,0,0.,4.8,0.,4.8,,0,0.,4.8,0.,4.8
1979-02-28 21:29:12.540 ,6,0,,0,0.,4.8,0.,4.8,,0,0.,4.8,0.,4.8
1979-02-28 21:29:17.340 ,6,0,,0,0.,4.8,0.,4.8,,0,0.,4.8,0.,4.8
1979-02-28 21:29:22.150 ,6,0,,0,0.,4.8,0.,4.8,,0,0.,4.8,0.,4.8
1979-02-28 21:29:26.940 ,5,0,,0,0.,4.8,0.,4.8,,0,0.,4.8,0.,4.8
1979-02-28 21:29:31.740 ,5,0,,0,0.,4.8,0.,4.8,,0,0.,4.8,0.,4.8
1979-02-28 21:29:36.540 ,5,0,,0,0.,4.8,0.,4.8,,0,0.,4.8,0.,4.8
1979-02-28 21:29:41.340 ,5,0,,0,0.,4.8,0.,4.8,,0,0.,4.8,0.,4.8
1979-02-28 21:29:46.140 ,5,0,,0,0.,4.8,0.,4.8,,0,0.,4.8,0.,4.8
1979-02-28 21:29:50.940 ,4,0,,0,0.,4.8,0.,4.8,,0,0.,4.8,0.,4.8
1979-02-28 21:29:55.740 ,4,0,,0,0.,4.8,0.,4.8,,0,0.,4.8,0.,4.8
1979-02-28 21:30:00.540 ,4,0,,0,0.,4.8,0.,4.8,,0,0.,4.8,0.,4.8